Sturgis, MI

9:11 AM EST on December 14, 2019 (GMT -0500)
Kirsch Municipal

Weather History for KIRS - October, 2019

Change the Weather History Date:

Friday, October 25, 2019

  Actual Average (KHAI) Record (KHAI)
Temperature  
Mean Temperature 44 °F -  
Max Temperature 51 °F 60 °F 80 °F (1963)
Min Temperature 37 °F 39 °F 19 °F (1960)
Degree Days  
Heating Degree Days 21    
Moisture  
Dew Point 36 °F    
Average Humidity 73    
Maximum Humidity 89    
Minimum Humidity 55    
Precipitation  
Precipitation 0.00 in - - ()
Sea Level Pressure  
Sea Level Pressure 30.28 in    
Wind  
Wind Speed 3 mph ()    
Max Wind Speed 7 mph    
Max Gust Speed -    
Visibility 9.7 miles    
Events      
Averages and records for this station are not official NWS values.
T = Trace of Precipitation, MM = Missing Value Source: Averaged Metar Reports

Daily Weather History Graph

Daily Weather History Graph

Search for Another Location

Airport or City:

Astronomy

Oct. 25, 2019 Rise Set
Actual Time 8:05 AM EDT 6:45 PM EDT
Civil Twilight 7:36 AM EDT 7:14 PM EDT
Nautical Twilight 7:04 AM EDT 7:46 PM EDT
Astronomical Twilight 6:32 AM EDT 8:18 PM EDT
Moon 4:42 AM EDT (10/25) 5:50 PM EDT (10/25)
Length of Visible Light 11h 37m
Length of Day
10h 40m
Waning Crescent, 9% of the Moon is Illuminated
Oct 25
Waning Crescent
Oct 27
New
Nov 4
First Quarter
Nov 12
Full
Nov 19
Last Quarter

Hourly Weather History & Observations

Time (EDT) Temp. Windchill Dew Point Humidity Pressure Visibility Wind Dir Wind Speed Gust Speed Precip Events Conditions
12:15 AM 45.0 °F 41.2 °F 36.5 °F 72% 30.34 in 10.0 mi North 6.9 mph - N/A   Overcast
12:16 AM 45.0 °F 41.8 °F 36.5 °F 72% 30.34 in 10.0 mi North 5.8 mph - N/A   Overcast
12:35 AM 44.8 °F 41.6 °F 36.5 °F 73% 30.33 in 10.0 mi North 5.8 mph - N/A   Overcast
12:58 AM 44.8 °F 41.6 °F 36.5 °F 73% 30.33 in 10.0 mi NNE 5.8 mph - N/A   Overcast
1:16 AM 44.6 °F 42.2 °F 36.7 °F 74% 30.32 in 10.0 mi NNE 4.6 mph - N/A   Overcast
1:35 AM 44.6 °F 42.2 °F 36.7 °F 74% 30.32 in 10.0 mi NNE 4.6 mph - N/A   Overcast
1:36 AM 44.6 °F 43.1 °F 36.5 °F 73% 30.32 in 10.0 mi NE 3.5 mph - N/A   Overcast
1:55 AM 44.6 °F 41.4 °F 36.5 °F 73% 30.32 in 10.0 mi NNE 5.8 mph - N/A   Overcast
2:19 AM 44.6 °F 40.7 °F 36.5 °F 73% 30.31 in 10.0 mi NNE 6.9 mph - N/A   Overcast
2:37 AM 44.2 °F 41.8 °F 36.5 °F 74% 30.31 in 10.0 mi NNE 4.6 mph - N/A   Overcast
2:55 AM 44.1 °F - 36.3 °F 74% 30.32 in 10.0 mi Calm Calm - N/A   Overcast
2:56 AM 44.1 °F 42.5 °F 36.3 °F 74% 30.32 in 10.0 mi NNE 3.5 mph - N/A   Overcast
3:15 AM 44.1 °F - 36.1 °F 74% 30.33 in 10.0 mi Calm Calm - N/A   Overcast
3:35 AM 43.9 °F - 36.3 °F 75% 30.33 in 10.0 mi Calm Calm - N/A   Overcast
3:58 AM 43.7 °F 42.1 °F 36.5 °F 76% 30.33 in 10.0 mi North 3.5 mph - N/A   Overcast
4:16 AM 43.7 °F - 36.3 °F 75% 30.32 in 10.0 mi Calm Calm - N/A   Overcast
4:35 AM 43.7 °F - 36.3 °F 75% 30.32 in 10.0 mi Calm Calm - N/A   Overcast
4:55 AM 43.3 °F - 36.9 °F 78% 30.31 in 10.0 mi Calm Calm - N/A   Overcast
5:19 AM 43.2 °F - 36.9 °F 78% 30.32 in 10.0 mi Calm Calm - N/A   Overcast
5:37 AM 43.2 °F - 37.2 °F 80% 30.32 in 10.0 mi Calm Calm - N/A   Overcast
5:55 AM 43.0 °F - 37.9 °F 82% 30.31 in 10.0 mi Calm Calm - N/A   Overcast
6:15 AM 43.0 °F - 37.4 °F 81% 30.32 in 10.0 mi Calm Calm - N/A   Overcast
6:35 AM 42.8 °F - 38.1 °F 84% 30.32 in 10.0 mi Calm Calm - N/A   Overcast
6:40 AM 42.8 °F - 38.3 °F 84% 30.32 in 10.0 mi Calm Calm - N/A   Overcast
6:58 AM 42.8 °F - 37.8 °F 82% 30.32 in 10.0 mi Calm Calm - N/A   Overcast
7:16 AM 43.0 °F 41.3 °F 38.1 °F 83% 30.32 in 10.0 mi NNW 3.5 mph - N/A   Overcast
7:35 AM 43.0 °F 41.3 °F 37.4 °F 81% 30.32 in 10.0 mi North 3.5 mph - N/A   Overcast
7:55 AM 43.0 °F 41.3 °F 36.9 °F 79% 30.32 in 10.0 mi North 3.5 mph - N/A   Overcast
7:56 AM 43.0 °F 41.3 °F 37.0 °F 80% 30.32 in 10.0 mi North 3.5 mph - N/A   Overcast
8:18 AM 43.2 °F 41.5 °F 36.1 °F 76% 30.32 in 10.0 mi NNE 3.5 mph - N/A   Overcast
8:37 AM 43.2 °F 40.5 °F 36.5 °F 77% 30.31 in 10.0 mi NNE 4.6 mph - N/A   Overcast
8:55 AM 43.2 °F 41.5 °F 36.5 °F 77% 30.32 in 10.0 mi North 3.5 mph - N/A   Overcast
9:15 AM 43.3 °F - 36.7 °F 77% 30.33 in 10.0 mi Calm Calm - N/A   Overcast
9:16 AM 43.3 °F 41.7 °F 36.5 °F 77% 30.33 in 10.0 mi North 3.5 mph - N/A   Overcast
9:39 AM 43.5 °F 41.9 °F 36.3 °F 76% 30.32 in 10.0 mi NNE 3.5 mph - N/A   Overcast
9:58 AM 43.7 °F 41.1 °F 36.0 °F 74% 30.32 in 10.0 mi ENE 4.6 mph - N/A   Overcast
10:16 AM 43.9 °F - 36.0 °F 74% 30.32 in 10.0 mi Calm Calm - N/A   Overcast
10:55 AM 44.1 °F - 35.6 °F 72% 30.32 in 10.0 mi Calm Calm - N/A   Overcast
11:19 AM 44.6 °F 42.2 °F 35.6 °F 71% 30.31 in 10.0 mi NE 4.6 mph - N/A   Overcast
11:55 AM 45.0 °F 43.5 °F 35.6 °F 70% 30.30 in 10.0 mi North 3.5 mph - N/A   Overcast
12:15 PM 45.7 °F 44.4 °F 36.0 °F 69% 30.31 in 10.0 mi North 3.5 mph - N/A   Overcast
12:35 PM 46.4 °F 45.2 °F 36.3 °F 68% 30.31 in 10.0 mi NNW 3.5 mph - N/A   Overcast
12:58 PM 47.7 °F - 36.3 °F 65% 30.31 in 10.0 mi Calm Calm - N/A   Scattered Clouds
1:15 PM 48.0 °F - 35.2 °F 61% 30.31 in 10.0 mi North 3.5 mph - N/A   Mostly Cloudy
1:35 PM 48.2 °F - 35.6 °F 62% 30.30 in 10.0 mi Calm Calm - N/A   Overcast
1:55 PM 47.8 °F - 34.5 °F 60% 30.29 in 10.0 mi Calm Calm - N/A   Overcast
2:19 PM 48.6 °F - 35.4 °F 60% 30.28 in 10.0 mi Calm Calm - N/A   Mostly Cloudy
2:37 PM 49.3 °F - 35.6 °F 59% 30.27 in 10.0 mi Calm Calm - N/A   Mostly Cloudy
2:55 PM 50.0 °F - 35.2 °F 57% 30.26 in 10.0 mi Calm Calm - N/A   Scattered Clouds
3:15 PM 50.4 °F - 35.4 °F 57% 30.25 in 10.0 mi NW 5.8 mph - N/A   Mostly Cloudy
3:16 PM 50.5 °F - 35.6 °F 57% 30.25 in 10.0 mi WNW 6.9 mph - N/A   Mostly Cloudy
3:35 PM 50.9 °F - 35.2 °F 55% 30.25 in 10.0 mi NNW 6.9 mph - N/A   Scattered Clouds
3:40 PM 50.4 °F - 35.2 °F 56% 30.25 in 10.0 mi NNW 5.8 mph - N/A   Scattered Clouds
3:58 PM 50.7 °F - 35.4 °F 56% 30.25 in 10.0 mi NW 6.9 mph - N/A   Scattered Clouds
4:16 PM 51.3 °F - 35.6 °F 55% 30.24 in 10.0 mi NNW 3.5 mph - N/A   Mostly Cloudy
4:35 PM 51.1 °F - 35.6 °F 55% 30.24 in 10.0 mi NNW 3.5 mph - N/A   Scattered Clouds
4:55 PM 50.5 °F - 35.2 °F 56% 30.24 in 10.0 mi NNW 3.5 mph - N/A   Mostly Cloudy
5:19 PM 50.2 °F - 34.9 °F 56% 30.24 in 10.0 mi Calm Calm - N/A   Mostly Cloudy
5:37 PM 50.0 °F - 35.2 °F 57% 30.23 in 10.0 mi NNW 3.5 mph - N/A   Mostly Cloudy
5:55 PM 49.5 °F - 35.8 °F 59% 30.23 in 10.0 mi Calm Calm - N/A   Scattered Clouds
5:56 PM 49.3 °F - 36.0 °F 60% 30.23 in 10.0 mi Calm Calm - N/A   Scattered Clouds
6:15 PM 48.9 °F - 36.0 °F 61% 30.24 in 10.0 mi Calm Calm - N/A   Scattered Clouds
6:16 PM 48.7 °F - 36.1 °F 62% 30.24 in 10.0 mi Calm Calm - N/A   Scattered Clouds
6:35 PM 47.5 °F - 36.9 °F 67% 30.23 in 10.0 mi Calm Calm - N/A   Scattered Clouds
6:40 PM 47.3 °F - 37.4 °F 68% 30.23 in 10.0 mi Calm Calm - N/A   Scattered Clouds
6:57 PM 46.6 °F - 37.0 °F 69% 30.23 in 10.0 mi Calm Calm - N/A   Clear
7:35 PM 44.2 °F - 37.8 °F 78% 30.24 in 10.0 mi Calm Calm - N/A   Clear
7:36 PM 44.4 °F - 37.8 °F 77% 30.24 in 10.0 mi Calm Calm - N/A   Clear
7:55 PM 43.2 °F - 37.6 °F 81% 30.25 in 10.0 mi Calm Calm - N/A   Clear
8:19 PM 41.9 °F - 38.1 °F 86% 30.25 in 10.0 mi Calm Calm - N/A   Clear
8:36 PM 41.4 °F - 37.8 °F 87% 30.24 in 10.0 mi Calm Calm - N/A   Clear
8:55 PM 41.2 °F - 37.6 °F 87% 30.24 in 10.0 mi Calm Calm - N/A   Clear
8:56 PM 41.2 °F - 37.6 °F 87% 30.24 in 10.0 mi Calm Calm - N/A   Clear
9:15 PM 39.9 °F - 36.7 °F 88% 30.24 in 10.0 mi Calm Calm - N/A   Clear
9:16 PM 39.7 °F - 36.7 °F 89% 30.24 in 10.0 mi Calm Calm - N/A   Clear
9:35 PM 39.9 °F - 36.7 °F 88% 30.24 in 10.0 mi Calm Calm - N/A   Clear
9:58 PM 38.7 °F - 35.4 °F 88% 30.24 in 5.0 mi Calm Calm - N/A   Clear
10:16 PM 38.1 °F 35.7 °F 34.9 °F 88% 30.24 in 5.0 mi North 3.5 mph - N/A   Clear
10:35 PM 37.9 °F - 34.9 °F 89% 30.24 in 10.0 mi Calm Calm - N/A   Clear
10:55 PM 39.4 °F - 36.5 °F 89% 30.24 in 10.0 mi Calm Calm - N/A   Clear
11:19 PM 38.3 °F - 35.4 °F 89% 30.25 in 5.0 mi Calm Calm - N/A   Clear
11:37 PM 38.1 °F - 35.1 °F 89% 30.24 in 5.0 mi Calm Calm - N/A   Clear
11:55 PM 37.9 °F - 34.9 °F 89% 30.23 in 5.0 mi Calm Calm - N/A   Clear